Weather Roundup
Issued by NWS

Home | Current Version | Previous Version | Graphics & Text | Print | Product List | Glossary Off
Versions: 1 2 3 4 5 6 7 8 9 10 11 12 13 14 15 16 17 18 19 20 21 22 23 24 25 26 27 28 29 30 31 32 33 34 35 36 37 38 39 40 41 42 43 44 45 46 47 48 49 50

326
NZUS93 KARX 032059
HRRWXR

CURRENT HOURLY OBSERVATIONS ACROSS
MUCH OF THE UPPER MISSISSIPPI VALLEY
NATIONAL WEATHER SERVICE LA CROSSE WI
400 PM CDT TUE MAY 03 2016


...SOUTHEAST MINNESOTA...


CITY           SKY/WX    TMP DP  RH WIND       PRES   REMARKS
ROCHESTER      MOSUNNY   67  39  35 W22G31    29.77F
ROCHESTER/MAYO FAIR      67  36  31 W20G32    29.75F
WINONA         CLOUDY    70  36  28 W10G24    29.74F
AUSTIN         MOSUNNY   66  37  34 W10G18    29.79F
ALBERT LEA     MOSUNNY   66  39  37 W13G22    29.80F
DODGE CENTER   MOSUNNY   68  36  30 W18G30    29.77F
PRESTON        MOSUNNY   66  36  32 W17G24    29.79F
OWATONNA       MOSUNNY   70  36  28 W17G26    29.77F
FARIBAULT      NOT AVBL
$$

...ELSEWHERE IN MINNESOTA...


CITY           SKY/WX    TMP DP  RH WIND       PRES   REMARKS
MINNEAPOLIS    PTSUNNY   71  39  31 W18G25    29.71F
INTNL FALLS    PTSUNNY   62  30  29 N18G28    29.78R
DULUTH         MOSUNNY   67  30  25 N20G29    29.66F
RED WING       MOSUNNY   72  32  23 W15G28    29.71F
REDWOOD FALLS  SUNNY     73  37  27 NW15G28   29.76F
MANKATO        MOSUNNY   70  39  32 W24G31    29.76F
WORTHINGTON    MOSUNNY   67  43  41 W26G32    29.85F
FAIRMONT       CLOUDY    68  43  40 W23G31    29.81F
$$

...SOUTHWEST WISCONSIN...


CITY           SKY/WX    TMP DP  RH WIND       PRES   REMARKS
LA CROSSE      CLOUDY    70  36  28 W20G28    29.74F
PRAIRIE DU CHI PTSUNNY   67  34  29 W20G26    29.81F
BOSCOBEL       LGT RAIN  70  37  29 W13G23    29.79F
LONE ROCK      NOT AVBL
PLATTEVILLE    CLOUDY    65  39  39 W16G22    29.83F
FORT MC COY    CLOUDY    70  35  28 W15G26    29.74F
MAUSTON-NEW LI MOCLDY    67  37  32 W16G26    29.74F
VIROQUA        CLOUDY    64  34  33 W14G23    29.79F
WIS DELLS      CLOUDY    66  32  28 W13G20    29.76F
$$

...ELSEWHERE IN WISCONSIN...


CITY           SKY/WX    TMP DP  RH WIND       PRES   REMARKS
MILWAUKEE      CLOUDY    67  33  28 W10G21    29.77F
MADISON        PTSUNNY   65  36  34 SW12G17   29.77F
GREEN BAY      PTSUNNY   68  36  30 W17       29.67F
EAU CLAIRE     NOT AVBL
BLACK RVR FLS  MOCLDY    69  30  23 W18G24    29.73F
MEDFORD        CLOUDY    60  36  39 W21G28    29.70S
WAUSAU         CLOUDY    66  33  29 W15G28    29.66F
WIS RAPIDS     CLOUDY    67  29  24 W14G28    29.71F
MARSHFIELD     CLOUDY    66  32  28 W17G25    29.68F
RICE LAKE      CLOUDY    67  35  30 W17G25    29.70F
$$

...NORTHEAST IOWA...


CITY           SKY/WX    TMP DP  RH WIND       PRES   REMARKS
WATERLOO       PTSUNNY   68  38  33 W17G26    29.84F
DUBUQUE        MOSUNNY   66  40  38 W18G26    29.83F
DECORAH        CLOUDY    66  36  32 NW12G25   29.80F
MASON CITY     CLOUDY    66  42  41 W22G29    29.84F
CHARLES CITY   CLOUDY    68  37  32 W18G28    29.84F
OELWEIN        PTSUNNY   66  37  34 W18G25    29.85F
$$

...ELSEWHERE IN IOWA...


CITY           SKY/WX    TMP DP  RH WIND       PRES   REMARKS
DES MOINES     CLOUDY    69  39  33 W18G26    29.91F
IOWA CITY      PTSUNNY   66  41  40 W18G24    29.89F
FORT DODGE     MOSUNNY   66  45  45 W13G18    29.88F
MARSHALLTOWN   CLOUDY    65  42  43 W17G24    29.87F
CEDAR RAPIDS   CLOUDY    65  42  43 W17G28    29.86F
$$

...NORTHERN ILLINOIS...


CITY           SKY/WX    TMP DP  RH WIND       PRES   REMARKS
CHICAGO-OHARE  PTSUNNY   64  38  38 W15       29.82F
CHICAGO-MIDWAY PTSUNNY   65  36  34 W10       29.83F
MOLINE         PTSUNNY   69  39  33 W18       29.87F
ROCKFORD       PTSUNNY   67  39  35 W17G28    29.83F
PEORIA         MOSUNNY   69  35  28 NW12G21   29.89F
$$

NOTE: "FAIR" INDICATES FEW OR NO CLOUDS BELOW 12,000 FEET WITH NO
SIGNIFICANT WEATHER AND/OR OBSTRUCTIONS TO VISIBILITY. WIND
SPEEDS ARE IN MILES-PER-HOUR.




USA.gov is the U.S. government's official web portal to all federal, state and local government web resources and services.